Find Starlink 33578

NORAD ID: 63368 Int'l Des: 2025-063 Owner: SPXS Country: US Constellation: starlink operational
LEOCIRCULAR

当前视图

正在加载3D地球...

About Starlink 33578

Starlink 33578 (NORAD 63368) is a starlink constellation satellite (v2 mini) launched Mar 26, 2025 by SPXS of US. It operates in LEO, CIRCULAR orbit with a mass of 575.00 kg.

即将过境

Passes for default location (London). Set your location on the main map for personalized predictions.

高度历史

Loading altitude history...

两行轨道根数

1 63368U 25063F 26224.91943933 .00010832 00000-0 33124-3 0 9999
2 63368 53.1582 42.2015 0001104 111.6060 248.5060 15.34401289 78688
Epoch: Aug 12, 2026 • Age: 15 hours

当前状态

高度 467.6 km
远地点 / 近地点 N/A
速度 7.64 km/s
星下点 49.45°N, 7.74°E
发射日期 Mar 26, 2025
运行时间 1.3 years
类型 internet

技术详情

分类 Payload
质量 575.00 kg
干质量 530.00 kg
总质量 575.00 kg
长度 0.30 m
直径 4.10 m
跨度 29.00 m
形状 Box + pan
制造商 SPXS
平台类型 Starlink V2MO
阶段状态 In Orbit
所有者/国家 SPXS/US

Most Searched